Location: Broletto
(44.6000°N, 10.5833°E)
Time: 07:45:33
(UTC+00:00)

Terra - Pass Details

Date: 18 April 2021
Orbit: 701 x 703 km, 98.2° (Epoch: 06 May)

Event Time Altitude Azimuth Distance (km) Brightness Sun altitude
Exits shadow 19:50:06 16° 73° (ENE) 1,821 3.6 -17.3°
Maximum altitude 19:50:58 16° 61° (ENE) 1,784 3.7 -17.4°
Drops below altitude 10° 19:53:52 10° 23° (NNE) 2,179 4.5 -17.8°
Sets 19:56:53 0° 3° (N) 3,102 5.7 -18.3°
